Terminal Aerodrome Forecast
Issued by NWS Wichita, KS

Home | Current Version | Previous Version | Text Only | Print | Product List | Glossary Off
Versions: 1 2 3 4 5 6 7 8 9 10 11 12 13 14 15 16 17 18 19 20 21

000
FTUS43 KICT 181124
TAFICT
TAF
KICT 181124Z 1812/1912 VRB05KT P6SM FEW080 OVC250
     FM181600 16015G24KT P6SM SCT030 BKN070
     FM190100 15006KT P6SM VCTS SCT020 BKN035CB=

USA.gov is the U.S. government's official web portal to all federal, state and local government web resources and services.